Location: Piotrkow Trybunalski
(51.4000°N, 19.6830°E)
Time: 05:43:24
(UTC+02:00)

STRAND 1 - Pass Details

Date: 23 February 2024
Orbit: 764 x 779 km, 98.4° (Epoch: 24 April)

Event Time Altitude Azimuth Distance (km) Brightness Sun altitude
Rises 03:30:02 0° 116° (ESE) 3,258 ? -29.9°
Reaches altitude 10° 03:32:56 10° 99° (E) 2,336 ? -29.5°
Maximum altitude 03:36:29 19° 55° (NE) 1,783 ? -29.0°
Drops below altitude 10° 03:40:04 10° 11° (N) 2,346 ? -28.5°
Sets 03:42:58 0° 355° (N) 3,278 ? -28.1°
